Portada
METAR-TAF:

Aeropuertos :

Chichén Itzá, México

Aeropuerto Internacional de Kaua

latitud: 20-38-30N, longitud: 088-26-58W, altitud: 31 m

Observación

El informe se hizo hace 12 horas y 3 minutos, a las 20:42 UTC
Viento 8 kt del sureste
Temperatura 39°C
Humedad 30%
Presión 1013 hPa
Visibilidad: 12.9 km
Cielo nuboso a una altura de 2000 ft

METAR: MMCT 252042Z 13008KT 8SM BKN020 39/18 A2992 RMK 8/400 MSGTX MMMD

Hora: 03:45 (08:45 UTC)


TAF: falta

METAR-TAF

Observaciones y pronósticos meteorológicos de más de 4000 aeropuertos (mensajes METAR y TAF).

Los puntos amarillos y rojos representan las estaciones disponibles.

Ponga el ratón en el punto deseado para ver el nombre de la estación.

Haga clic para ver las observaciones y los pronósticos meteorológicos.

Para cambiar el mapa : haga clic en los botones verdes con una cruz de color negro para hacer un zoom, en el botón verde con un guión para alejar o en las flechas verdes para mapas adyacentes.


METAR-TAF: